MPEC 2001-Q44: 2001 PT13

The following Minor Planet Electronic Circular may be linked-to from your own Web pages, but must not otherwise be redistributed electronically.


Read MPEC 2001-Q43 Read MPEC 2001-Q45


M.P.E.C. 2001-Q44                                Issued 2001 Aug. 24, 21:11 UT

     The Minor Planet Electronic Circulars contain information on unusual
         minor planets and routine data on comets.  They are published
   on behalf of Commission 20 of the International Astronomical Union by the
          Minor Planet Center, Smithsonian Astrophysical Observatory,
                          Cambridge, MA 02138, U.S.A.

             Prepared using the Tamkin Foundation Computer Network

                              MPC@CFA.HARVARD.EDU
          URL http://cfa-www.harvard.edu/iau/mpc.html  ISSN 1523-6714

                                   2001 PT13

Additional observations:
     K01P13T  C2001 07 17.28190 22 01 42.67 +07 37 21.3          18.2 R      699
     K01P13T  C2001 07 17.31083 22 01 42.34 +07 37 21.0                      699
     K01P13T  C2001 07 17.33970 22 01 42.08 +07 37 20.1                      699
     K01P13T  C2001 07 17.36862 22 01 41.55 +07 37 20.2                      699
     K01P13T  C2001 07 20.28659 22 01 04.54 +07 36 19.9          18.3 R      699
     K01P13T  C2001 07 20.30709 22 01 04.27 +07 36 18.6                      699
     K01P13T  C2001 07 20.33597 22 01 03.88 +07 36 17.0                      699
     K01P13T  C2001 07 20.36481 22 01 03.38 +07 36 16.4                      699
     K01P13T  C2001 08 23.15150 21 52 01.44 +06 50 39.9          18.1 R      699
     K01P13T  C2001 08 23.17176 21 52 01.06 +06 50 37.1                      699
     K01P13T  C2001 08 23.19204 21 52 00.69 +06 50 34.7                      699
     K01P13T  C2001 08 23.21237 21 52 00.37 +06 50 31.7                      699
     K01P13T SC2001 08 23.83725 21 51 49.57 +06 49 11.1                      557
     K01P13T  C2001 08 23.86262 21 51 49.09 +06 49 05.5                      557
     K01P13T  C2001 08 23.93910 21 51 47.77 +06 48 55.6                      557
     K01P13T  C2001 08 24.00362 21 51 46.63 +06 48 47.1          17.8 R      046
     K01P13T  C2001 08 24.00543 21 51 46.60 +06 48 46.6                      046
     K01P13T  C2001 08 24.00709 21 51 46.59 +06 48 46.6                      046
     K01P13T  C2001 08 24.00874 21 51 46.59 +06 48 46.1                      046
     K01P13T  C2001 08 24.01051 21 51 46.55 +06 48 46.4          17.7 R      046
     K01P13T  C2001 08 24.20956 21 51 43.16 +06 48 19.4                      918
     K01P13T  C2001 08 24.21483 21 51 43.03 +06 48 19.0                      918
     K01P13T  C2001 08 24.22252 21 51 42.98 +06 48 17.6                      918
     K01P13T  C2001 08 24.22853 21 51 42.82 +06 48 16.8                      918
     K01P13T 0C2001 08 24.23383 21 51 42.82 +06 48 17.4          18.0 R      675
     K01P13T 0C2001 08 24.24311 21 51 42.66 +06 48 16.2          18.0 R      675
     K01P13T 0C2001 08 24.25051 21 51 42.53 +06 48 15.2          18.0 R      675
     K01P13T  C2001 08 24.84851 21 51 32.23 +06 46 53.4                      611
     K01P13T  C2001 08 24.86435 21 51 31.87 +06 46 52.6          18.9 V      611

Observer details:
046 Klet.  Observers J. Ticha, M. Tichy, M. Kocer, P. Jelinek.  0.57-m f/5.2
    reflector + CCD.
557 Ondrejov.  Observers P. Pravec, P. Kusnirak.  0.65-m f/3.6 reflector + CCD.
611 Starkenburg.  Observer F. Hormuth.  0.45-m f/4.4 reflector + CCD.
675 Palomar Mountain.  Observers P. Weissman, S. Lowry, L. Desroches.  1.5-m
    reflector + CCD.
699 Lowell Observatory-LONEOS.  Observers B. A. Skiff, B. W. Koehn.  0.59-m
    LONEOS Schmidt + CCD.
918 Badlands Observatory, Quinn.  Observer R. Dyvig.  0.66-m f/4.8 reflector
    + CCD.

Orbital elements:
2001 PT13 = 1995 MM6 = 1999 NE2
Epoch 2001 Oct. 18.0 TT = JDT 2452200.5                 Spahr
M  27.42176              (2000.0)            P               Q
n   0.02841677     Peri.   86.89783     +0.35140741     +0.92433567
a  10.6353777      Node   205.31586     -0.93582682     +0.34218046
e   0.1977128      Incl.   20.35191     -0.02722112     +0.16886710
P  34.68           H    9.2           G   0.15           U   2
Residuals in seconds of arc
950628 691  0.1-  0.1+    010717 699  0.5-  0.4+    010823 557  0.0   2.0+
950628 691  0.0   0.0     010717 699  1.1+  0.1-    010823 557  0.6-  0.3-
950628 691  0.1+  0.1+    010717 699  1.3-  0.5+    010823 557  0.3-  0.1-
950629 691  0.1+  0.0     010720 699  0.8+  1.1+    010824 046  0.5-  0.1-
950629 691  0.1-  0.2+    010720 699  0.9+  0.3+    010824 046  0.5-  0.4-
950629 691  0.0   0.1+    010720 699  0.9+  0.5-    010824 046  0.2-  0.1-
990712 704  0.8+  0.2-    010720 699  0.7-  0.4-    010824 046  0.2+  0.4-
990712 704  0.4+  0.8-    010809 644  0.5-  0.9-    010824 046  0.1+  0.1+
990712 704  0.1-  0.4+    010809 644  0.8-  0.7-    010824 918  0.1-  0.6-
990712 704  0.2-  0.3-    010809 644  0.8-  0.8-    010824 918  0.6-  0.3-
990712 704  0.4-  1.0-    010814 644  0.0   0.1+    010824 918  0.6+  0.7-
990713 704  0.3+  0.0     010814 644  0.0   0.3+    010824 918  0.2-  0.7-
990713 704  0.4+  0.4+    010814 644  0.1-  0.3+    010824 675  0.9+  0.4+
990713 704  0.7-  0.2+    010823 699  0.7+  0.8+    010824 675  1.0+  0.5+
990713 704  0.2+  0.3+    010823 699  0.3+  0.6+    010824 675  1.0+  0.5+
990713 704  0.6-  0.2+    010823 699  0.1+  0.8+    010824 611  0.2+  1.3-
010717 699  1.0-  0.2+    010823 699  0.7+  0.5+    010824 611  1.0-  0.0

Ephemeris:
2001 PT13                a,e,i = 10.64, 0.20, 20                 q = 8.5326
Date    TT    R. A. (2000) Decl.     Delta      r     Elong.  Phase     V
2001 08 19    21 53.22   +06 59.3    7.887    8.846   160.2     2.2    18.7
2001 08 29    21 50.36   +06 37.3    7.890    8.852   161.2     2.1    18.7
2001 09 08    21 47.67   +06 12.0    7.923    8.859   157.0     2.5    18.7
2001 09 18    21 45.29   +05 44.3    7.982    8.866   149.8     3.3    18.8
2001 09 28    21 43.36   +05 15.7    8.069    8.872   141.3     4.1    18.8
2001 10 08    21 42.00   +04 47.2    8.178    8.879   132.1     4.8    18.9
2001 10 18    21 41.28   +04 20.1    8.308    8.886   122.7     5.4    19.0
2001 10 28    21 41.26   +03 55.4    8.454    8.893   113.2     5.9    19.0
2001 11 07    21 41.95   +03 34.0    8.612    8.900   103.8     6.2    19.1
2001 11 17    21 43.35   +03 16.4    8.777    8.907    94.4     6.4    19.2
2001 11 27    21 45.43   +03 03.3    8.945    8.914    85.1     6.3    19.2
2001 12 07    21 48.14   +02 54.7    9.110    8.921    75.9     6.1    19.2
2001 12 17    21 51.42   +02 50.9    9.270    8.929    66.8     5.8    19.3

Timothy B. Spahr             (C) Copyright 2001 MPC           M.P.E.C. 2001-Q44

Read MPEC 2001-Q43 Read MPEC 2001-Q45


Our Web policy. Index to the CBAT/MPC/ICQ pages.

MPC